This is the latest recevied weather packets stored in our database for station/object KC8YYF. If no packets are shown the sender has not sent any weather packets the latest 1 day(s).
| Time | Temp. | Humidity | Pressure | Rain* | Wind** | Luminosity | Snow |
|---|---|---|---|---|---|---|---|
| 1778058767 | 7.78° C | 99% | 1008.2 hPa | 0 mm | - | 0 W/m² | - |
| 1778057858 | 7.78° C | 99% | 1008.4 hPa | 0 mm | - | 0 W/m² | - |
| 1778057251 | 7.78° C | 99% | 1008.3 hPa | 0 mm | - | 0 W/m² | - |
| 1778056342 | 8.33° C | 99% | 1008 hPa | 0.51 mm | - | 0 W/m² | - |
| 1778055735 | 8.89° C | 99% | 1007.4 hPa | 0 mm | - | 0 W/m² | - |
| 1778055433 | 8.89° C | 99% | 1007.5 hPa | 0 mm | - | 0 W/m² | - |
| 1778055130 | 8.89° C | 99% | 1007 hPa | 0.51 mm | - | 0 W/m² | - |
| 1778054828 | 9.44° C | 99% | 1007.4 hPa | 0 mm | - | 0 W/m² | - |
| 1778054524 | 9.44° C | 99% | 1007.5 hPa | 0 mm | - | 0 W/m² | - |
| 1778054222 | 9.44° C | 99% | 1007.6 hPa | 0 mm | - | 0 W/m² | - |
| 1778053918 | 9.44° C | 99% | 1007.3 hPa | 0 mm | - | 0 W/m² | - |
| 1778053011 | 9.44° C | 99% | 1007.4 hPa | 0 mm | - | 0 W/m² | - |
| 1778052708 | 9.44° C | 99% | 1007.4 hPa | 0 mm | - | 0 W/m² | - |
| 1778052103 | 10° C | 99% | 1007 hPa | 1.27 mm | - | 0 W/m² | - |
| 1778051800 | 10° C | 99% | 1007.1 hPa | 0.51 mm | - | 0 W/m² | - |
| 1778051194 | 10° C | 99% | 1007 hPa | 1.27 mm | - | 0 W/m² | - |
| 1778050286 | 10.56° C | 99% | 1006.9 hPa | 0.51 mm | - | 0 W/m² | - |
| 1778049983 | 10.56° C | 99% | 1007.1 hPa | 0.51 mm | - | 0 W/m² | - |
| 1778049678 | 10.56° C | 99% | 1007.1 hPa | 0.51 mm | - | 0 W/m² | - |
| 1778049376 | 10.56° C | 99% | 1007.1 hPa | 0.51 mm | - | 0 W/m² | - |
| 1778048772 | 11.11° C | 99% | 1007.3 hPa | 0.51 mm | - | 0 W/m² | - |
| 1778048469 | 11.11° C | 99% | 1007.5 hPa | 0.51 mm | - | 0 W/m² | - |
| 1778047862 | 11.11° C | 99% | 1007.4 hPa | 0.51 mm | - | 0 W/m² | - |
| 1778047561 | 11.67° C | 99% | 1007.8 hPa | 0 mm | - | 0 W/m² | - |
| 1778047257 | 11.11° C | 99% | 1007.7 hPa | 0 mm | - | 0 W/m² | - |
* Rain latest hour (hover to see other rain measurements)
** Current wind speed in m/s (hover to see current wind gust speed)